Temperature
8 8 8 8 7 7 7 7 6 6 6 6 6 6 6 6 6 6 6 6 6 6 6 6 6 5 5 5 5 5 5 4 4 4 4 4 4 4
7 7 7 7 7 7 7 6 6 6 5 6 6 6 6 6 5 5 5 5 5 5 5 5 5 5 5 5 4 4 4 4 4 4 4 3 3 3
7 7 7 6 6 6 6 6 6 5 5 5 5 5 5 5 5 5 5 5 5 5 5 5 4 4 4 4 4 4 4 3 3 3 3 3 3 3
6 6 6 6 6 6 5 5 5 5 5 5 5 5 5 4 4 4 4 4 4 4 4 4 4 4 3 3 3 3 3 3 3 3 2 2 2 2
5 5 5 5 5 5 5 5 4 4 4 4 4 4 4 4 4 4 4 4 4 4 4 3 3 3 3 3 2 2 2 2 2 2 2 2 2 2
5 5 5 4 4 4 4 4 4 4 4 4 3 3 3 3 3 3 3 3 3 3 3 3 3 2 2 2 2 2 2 2 1 1 1 1 1 1
4 4 4 4 4 3 3 3 3 3 3 3 3 3 3 2 2 2 2 2 3 2 2 2 2 2 2 2 1 1 1 1 1 1 1 1 1 1
3 3 3 3 3 3 3 3 2 2 2 2 2 2 2 2 1 1 1 1 1 2 1 2 1 1 1 1 1 1 1 0 0 0 0 0 0 0
3 3 3 3 2 2 2 2 2 2 2 2 1 1 1 1 1 1 1 0 1 1 1 1 1 1 1 1 0 0 0 0 -0 -0 -0 -0 -0 -0
2 2 2 2 2 1 2 2 2 1 1 1 1 1 0 0 0 0 0 0 0 0 -0 -0 0 0 1 0 0 -0 -0 -0 -0 -1 -1 -1 -1 -1
1 1 1 1 1 1 1 1 1 1 0 0 0 0 -0 -0 -0 -0 -0 -1 -1 -0 -1 -1 -1 -1 -0 0 -0 -1 -1 -1 -1 -1 -1 -1 -1 -1
1 1 0 0 0 0 0 0 0 0 -0 -0 -0 -0 -0 -1 -1 -1 -1 -1 -1 -1 -1 -2 -2 -2 -2 -1 -1 -1 -1 -1 -1 -2 -2 -2 -2 -2
0 -0 -0 -0 -0 -0 -0 -1 -1 -1 -1 -1 -1 -1 -1 -1 -1 -1 -1 -2 -2 -2 -2 -2 -2 -3 -3 -3 -2 -2 -2 -2 -2 -2 -2 -2 -2 -2
-1 -1 -1 -1 -1 -1 -1 -1 -1 -1 -2 -2 -2 -2 -2 -2 -2 -2 -2 -2 -2 -2 -2 -3 -3 -3 -3 -4 -3 -3 -3 -3 -3 -3 -3 -3 -3 -3
-1 -1 -1 -1 -1 -2 -2 -2 -2 -2 -2 -2 -3 -3 -3 -3 -3 -3 -2 -2 -2 -2 -3 -3 -3 -3 -3 -4 -4 -3 -3 -3 -3 -3 -3 -3 -3 -3
-2 -2 -2 -2 -2 -2 -2 -2 -3 -3 -3 -3 -3 -3 -3 -3 -3 -3 -3 -3 -3 -2 -3 -3 -4 -4 -4 -4 -4 -4 -4 -4 -4 -4 -4 -4 -3 -4
-3 -3 -3 -3 -3 -3 -3 -3 -3 -3 -3 -4 -4 -4 -4 -4 -4 -4 -4 -4 -4 -4 -4 -4 -4 -4 -4 -4 -4 -4 -4 -4 -4 -4 -4 -4 -4 -4
-3 -3 -3 -4 -4 -4 -4 -4 -4 -4 -4 -4 -4 -4 -4 -4 -4 -5 -5 -5 -5 -5 -5 -5 -5 -5 -4 -4 -4 -5 -5 -5 -5 -5 -5 -5 -4 -4
-4 -4 -4 -4 -4 -4 -4 -4 -4 -5 -5 -5 -5 -5 -5 -5 -5 -5 -5 -5 -5 -5 -5 -5 -5 -6 -6 -6 -5 -5 -5 -5 -5 -5 -5 -5 -5 -5
-4 -4 -5 -5 -5 -5 -5 -5 -5 -5 -5 -5 -5 -5 -5 -6 -6 -6 -6 -6 -6 -6 -6 -6 -6 -6 -6 -6 -6 -5 -6 -6 -6 -6 -5 -5 -5 -5
-5 -5 -5 -5 -5 -6 -6 -6 -6 -6 -6 -6 -6 -6 -6 -6 -6 -6 -6 -6 -7 -7 -7 -6 -6 -6 -7 -7 -6 -6 -6 -6 -6 -6 -6 -6 -5 -5
-5 -5 -6 -6 -6 -6 -6 -6 -6 -6 -6 -6 -6 -6 -7 -7 -7 -7 -7 -7 -7 -7 -7 -7 -7 -7 -7 -7 -7 -6 -6 -6 -6 -6 -6 -6 -7 -6
-6 -6 -6 -6 -6 -6 -6 -6 -6 -6 -7 -7 -7 -7 -7 -7 -7 -7 -7 -7 -7 -7 -7 -7 -7 -7 -7 -7 -7 -7 -6 -6 -6 -6 -6 -6 -6 -6
Wind_Speed
3 3 2 2 2 1 1 2 2 3 4 3 2 2 2 3 4 5 5 7 8 8 9 9 9 10 10 10 11 12 12 12 13 13 14 15 15 15
2 2 2 2 2 2 2 2 2 3 4 3 3 3 3 4 5 5 6 8 9 9 9 10 10 10 10 10 11 11 12 12 13 13 14 14 15 15
2 3 3 2 2 1 1 2 2 2 5 5 3 2 2 3 4 5 6 6 7 9 10 10 9 9 10 10 10 11 11 12 12 13 14 14 15 15
3 3 3 2 2 2 2 2 3 3 4 6 4 3 3 3 3 4 5 6 7 8 9 9 9 9 10 10 10 10 10 11 12 13 14 14 15 15
3 3 3 2 3 2 2 3 3 3 3 4 5 4 3 3 4 4 4 4 7 8 8 8 9 9 10 10 10 10 10 11 12 13 14 14 14 14
3 3 3 3 3 3 3 3 2 3 3 3 4 4 3 3 2 4 5 3 4 6 6 7 8 8 9 10 10 9 10 10 11 13 14 14 13 13
2 2 2 2 2 2 3 2 2 2 3 3 4 4 3 3 3 3 5 5 4 3 3 4 5 5 7 8 8 9 9 10 12 13 13 14 14 14
2 1 1 1 2 3 4 4 4 4 4 4 5 5 5 5 4 3 4 5 4 2 3 5 3 3 5 6 8 9 10 11 12 13 14 14 14 14
1 1 2 1 1 1 3 4 5 6 5 4 5 6 5 4 4 4 4 5 5 4 4 5 3 3 4 6 9 9 10 11 12 13 14 15 15 15
1 1 1 1 1 2 2 3 3 4 5 4 3 4 4 3 3 4 5 5 4 3 2 4 4 4 5 6 8 8 9 11 13 14 15 15 14 14
1 0 1 1 3 2 1 2 3 3 5 5 6 6 6 7 5 2 3 4 5 3 1 1 2 5 4 3 5 7 10 12 13 14 15 15 15 14
0 1 1 2 3 3 1 1 3 3 3 4 5 6 5 5 6 3 2 3 4 3 1 1 2 3 3 2 3 6 8 11 12 13 14 15 15 11
0 1 1 3 4 3 3 2 3 3 2 2 2 3 3 3 3 4 2 2 3 3 3 2 2 2 2 4 4 4 5 7 9 10 12 14 15 12
1 1 2 4 4 4 3 3 3 3 1 1 2 3 3 3 3 4 4 4 3 4 5 4 3 3 4 5 5 4 5 6 7 7 8 12 13 14
1 2 3 4 4 3 3 3 3 1 1 1 2 3 3 2 3 3 4 4 4 5 6 5 3 3 3 4 5 5 6 5 5 5 6 7 7 8
1 2 3 3 3 3 3 2 1 1 1 1 2 2 2 2 3 3 3 3 3 3 4 5 4 3 4 4 5 6 6 4 5 7 7 7 8 8
1 1 1 2 1 1 2 1 1 1 1 1 1 2 2 2 3 3 3 3 3 3 4 4 5 5 4 4 4 5 5 5 5 6 7 8 7 6
0 0 1 1 1 1 1 2 1 1 1 1 1 2 2 2 3 3 3 3 3 3 4 4 4 4 3 3 4 4 4 4 5 6 6 7 8 7
1 1 1 2 2 2 2 2 2 2 2 2 2 2 2 2 2 2 3 3 3 4 4 4 4 3 5 6 4 3 4 5 6 6 5 6 7 8
1 2 2 2 2 2 2 2 2 2 2 2 2 2 2 2 2 2 2 3 3 4 4 3 3 3 4 5 5 6 8 6 5 6 7 6 6 9
1 2 2 2 2 2 2 2 2 2 2 2 2 2 2 2 2 2 2 4 4 3 4 5 5 6 4 3 4 5 5 8 8 6 6 7 6 5
2 2 2 2 2 2 2 2 2 3 3 2 2 2 2 2 2 3 2 3 3 3 4 5 5 4 3 4 5 6 7 7 9 10 9 7 5 4
2 2 2 2 2 2 2 3 3 3 3 3 2 2 3 3 2 2 3 3 3 3 4 5 5 4 3 3 4 5 7 7 6 6 5 9 10 11
Wind_Direction
210 213 219 234 237 233 223 206 224 266 277 265 279 299 321 313 302 300 297 295 296 297 300 302 305 307 308 311 313 316 316 315 313 311 311 310 311 312
207 211 224 233 231 223 214 233 233 243 268 274 276 290 315 320 307 307 299 296 292 294 299 302 305 308 310 313 315 317 317 316 315 314 312 312 313 313
214 211 226 232 234 239 230 243 257 249 266 288 294 300 309 304 310 303 299 295 294 294 298 300 301 307 312 315 316 317 318 319 317 315 315 315 314 314
224 219 230 238 241 246 242 249 253 245 249 275 290 296 295 288 295 299 307 307 303 297 298 298 301 309 313 315 315 316 320 320 319 318 317 316 314 314
223 224 234 224 242 252 255 257 262 268 256 262 284 298 304 308 310 308 309 308 308 303 301 302 305 309 311 315 317 320 322 323 324 325 322 319 317 317
229 225 235 232 237 246 257 260 276 284 279 271 278 292 299 307 312 310 312 309 305 310 307 308 308 310 312 315 318 321 323 326 329 331 330 327 323 323
226 230 236 249 257 261 268 270 265 264 273 274 275 288 290 309 297 297 302 311 305 294 311 307 306 302 308 314 318 321 327 331 333 333 334 332 329 326
228 252 252 233 261 274 281 290 279 261 264 268 275 279 279 288 294 299 305 316 306 306 321 302 293 294 306 312 318 326 330 331 332 334 335 333 330 327
223 230 268 274 293 275 297 311 303 293 284 270 268 272 277 280 284 287 285 285 282 291 312 294 294 299 309 312 318 323 330 335 336 335 333 332 330 328
218 218 230 247 273 293 309 311 301 304 304 301 278 284 295 298 272 269 275 292 291 281 282 285 300 305 310 307 306 321 335 339 337 334 333 332 332 331
256 271 271 265 281 308 320 308 313 317 333 328 325 323 321 318 314 311 293 292 304 303 297 284 308 322 309 291 309 331 336 333 332 333 334 335 335 333
309 303 291 292 294 312 306 286 299 310 327 336 332 330 326 325 325 305 270 277 301 295 293 343 320 337 320 299 316 329 328 325 329 332 335 336 337 337
256 293 290 297 305 309 314 299 291 316 321 325 328 329 332 330 326 323 310 278 281 282 286 324 306 308 288 304 313 311 320 322 326 327 329 333 335 336
262 292 295 302 310 317 323 319 324 342 348 334 328 324 329 334 338 338 342 339 314 282 286 292 283 287 299 303 304 313 319 316 316 316 322 329 331 329
314 317 329 327 323 325 316 319 338 2 326 311 308 312 317 320 332 337 346 348 338 320 311 305 288 288 288 288 293 300 312 310 312 319 322 320 317 320
359 342 347 350 351 344 339 343 355 323 308 284 303 313 325 336 336 330 332 341 342 335 329 324 310 292 294 285 280 289 297 295 310 317 317 315 315 314
357 18 3 350 355 355 351 344 340 333 327 320 307 313 321 331 329 331 330 334 328 322 332 336 327 312 287 277 279 281 291 298 302 313 320 319 315 316
5 270 272 286 293 296 306 316 321 321 309 303 295 294 304 314 318 328 337 336 326 322 323 327 337 340 336 318 264 274 293 301 308 313 314 315 313 316
241 235 247 259 273 280 281 286 295 303 303 292 284 283 292 299 305 317 328 326 320 321 322 325 332 337 333 327 314 301 308 310 312 312 310 308 304 307
247 246 254 261 268 274 278 289 293 289 284 280 280 278 277 282 289 300 309 312 314 318 320 323 332 332 314 302 297 301 304 299 307 311 313 309 299 299
264 268 263 265 272 272 275 277 277 275 273 276 274 279 283 285 283 287 296 302 311 313 316 318 315 318 306 301 302 304 305 311 312 307 311 315 316 318
265 265 269 272 271 271 276 275 273 267 264 266 270 275 280 281 282 285 289 296 302 306 310 310 312 318 317 309 306 307 312 317 320 321 315 307 307 309
256 257 261 263 267 271 272 271 270 265 262 264 265 269 274 281 286 284 283 288 294 302 312 316 321 322 316 304 303 305 311 319 324 329 325 327 322 311
Height
1513 1514 1514 1515 1515 1516 1516 1516 1516 1513 1511 1511 1511 1510 1509 1508 1506 1505 1503 1502 1500 1499 1497 1495 1494 1492 1490 1488 1486 1484 1481 1479 1477 1475 1473 1471 1469 1467
1509 1510 1510 1510 1511 1511 1511 1512 1511 1510 1508 1507 1507 1506 1505 1503 1502 1500 1499 1497 1496 1494 1492 1491 1489 1487 1485 1483 1481 1479 1476 1474 1472 1470 1468 1466 1464 1461
1504 1505 1505 1506 1506 1506 1506 1506 1506 1506 1504 1502 1503 1501 1500 1499 1497 1496 1494 1493 1491 1490 1488 1486 1484 1482 1480 1478 1476 1474 1471 1469 1467 1465 1463 1460 1458 1456
1499 1500 1500 1501 1501 1502 1502 1501 1501 1501 1500 1497 1497 1496 1495 1494 1492 1491 1489 1488 1487 1485 1483 1481 1479 1477 1475 1473 1471 1469 1466 1464 1462 1460 1458 1455 1453 1451
1494 1495 1496 1496 1496 1496 1497 1496 1496 1496 1495 1493 1492 1491 1490 1489 1487 1485 1484 1483 1482 1480 1478 1476 1474 1472 1470 1468 1466 1464 1462 1459 1457 1455 1452 1450 1448 1446
1490 1491 1491 1492 1492 1492 1492 1492 1492 1491 1490 1489 1487 1486 1485 1484 1482 1480 1478 1477 1476 1475 1473 1472 1469 1467 1465 1463 1461 1459 1457 1455 1452 1450 1447 1445 1443 1440
1485 1486 1486 1486 1487 1487 1487 1487 1487 1486 1485 1484 1482 1481 1480 1478 1477 1475 1474 1472 1470 1469 1467 1466 1464 1462 1460 1458 1456 1454 1452 1450 1448 1445 1443 1440 1438 1436
1480 1480 1481 1482 1482 1482 1483 1483 1483 1482 1480 1479 1478 1476 1475 1474 1473 1472 1470 1467 1465 1465 1463 1461 1460 1457 1456 1454 1452 1450 1448 1446 1443 1441 1438 1436 1433 1431
1476 1476 1477 1478 1478 1478 1478 1478 1478 1477 1476 1475 1473 1472 1471 1470 1469 1467 1466 1464 1462 1460 1458 1455 1455 1453 1451 1450 1448 1446 1444 1441 1439 1437 1434 1432 1429 1427
1473 1473 1473 1473 1474 1474 1473 1473 1472 1472 1471 1470 1469 1468 1467 1466 1465 1464 1462 1460 1458 1457 1455 1452 1449 1448 1447 1446 1444 1442 1440 1438 1435 1433 1430 1428 1425 1423
1469 1469 1470 1470 1470 1470 1469 1468 1467 1467 1466 1466 1465 1464 1463 1462 1460 1459 1457 1455 1452 1451 1450 1448 1445 1443 1441 1441 1440 1438 1436 1434 1431 1429 1426 1424 1421 1418
1465 1466 1467 1467 1467 1466 1465 1464 1463 1462 1462 1461 1460 1459 1458 1457 1456 1455 1453 1451 1449 1447 1445 1445 1443 1441 1437 1435 1435 1434 1432 1430 1427 1425 1422 1420 1417 1414
1462 1463 1463 1463 1463 1463 1462 1461 1460 1459 1458 1457 1456 1454 1453 1452 1451 1450 1449 1448 1446 1444 1443 1442 1439 1438 1436 1432 1430 1430 1428 1426 1423 1421 1419 1417 1414 1411
1460 1460 1460 1460 1460 1459 1458 1457 1457 1456 1455 1453 1452 1450 1449 1448 1447 1446 1445 1444 1443 1442 1440 1439 1436 1434 1432 1429 1426 1425 1424 1423 1420 1417 1415 1413 1410 1408
1457 1457 1457 1457 1456 1456 1455 1454 1453 1452 1451 1450 1449 1448 1447 1445 1444 1443 1441 1440 1439 1438 1437 1435 1434 1432 1430 1427 1424 1422 1420 1418 1417 1414 1412 1409 1406 1403
1454 1454 1454 1453 1453 1452 1452 1451 1450 1450 1448 1447 1446 1445 1444 1443 1441 1440 1438 1437 1435 1434 1433 1432 1430 1429 1426 1424 1422 1420 1418 1416 1413 1411 1408 1406 1403 1401
1451 1451 1451 1450 1449 1449 1448 1448 1447 1447 1446 1445 1444 1442 1441 1440 1439 1438 1436 1434 1433 1431 1429 1428 1427 1426 1424 1422 1419 1417 1415 1413 1411 1408 1405 1402 1400 1398
1449 1448 1447 1447 1446 1446 1445 1444 1444 1443 1443 1442 1441 1440 1439 1437 1436 1435 1434 1433 1431 1429 1427 1425 1424 1422 1420 1419 1418 1415 1413 1410 1408 1406 1403 1400 1396 1394
1446 1445 1445 1444 1444 1443 1443 1442 1441 1441 1440 1439 1438 1437 1436 1435 1434 1433 1431 1430 1428 1427 1425 1424 1422 1420 1418 1415 1414 1414 1411 1408 1405 1403 1400 1397 1394 1391
1443 1442 1442 1442 1441 1440 1440 1439 1438 1438 1437 1436 1435 1434 1433 1432 1431 1430 1429 1428 1426 1424 1423 1422 1421 1419 1417 1415 1412 1410 1409 1406 1403 1400 1397 1395 1392 1390
1440 1439 1439 1439 1438 1437 1437 1436 1435 1434 1434 1433 1432 1431 1430 1430 1429 1428 1426 1425 1424 1422 1420 1419 1418 1417 1415 1413 1410 1407 1406 1405 1402 1399 1395 1392 1389 1386
1436 1436 1436 1435 1435 1434 1433 1433 1432 1431 1430 1430 1429 1428 1427 1427 1426 1425 1424 1423 1422 1420 1419 1417 1416 1414 1413 1411 1408 1405 1403 1401 1400 1397 1395 1392 1389 1385
1433 1433 1432 1432 1431 1430 1430 1429 1428 1427 1427 1426 1426 1425 1425 1424 1423 1422 1422 1421 1419 1418 1416 1415 1413 1412 1410 1409 1406 1403 1401 1399 1396 1394 1392 1391 1388 1386